When you browse on this site, cookies collect data to enhance your experience and personalize the content and advertising you see.
Visit our Privacy Policy to learn more. By continuing to use the site, you agree to this use of cookies and data.
  • în România
  • Lista ţărilor
  • Pe 7 zile
  • Temperatura apei
  • Meteo pe hartă
  • Widget-uri
  • user-avatar
    Intrare

    Meteo pe oră la Bristol

    Astăzi, 10 Aprilie, Vineri

    Timp Temperatura Precipitaţii Vânt Presiune Umiditate
    00:00 +10°C° 0 mm 3 m/s 767 mmHg 85%
    01:00 +9°C° 0 mm 3 m/s 767 mmHg 85%
    02:00 +9°C° 0 mm 2 m/s 766 mmHg 85%
    03:00 +8°C° 0 mm 2 m/s 766 mmHg 86%
    04:00 +8°C° 0 mm 2 m/s 766 mmHg 87%
    05:00 +8°C° 0 mm 2 m/s 766 mmHg 88%
    06:00 +8°C° 0 mm 2 m/s 766 mmHg 89%
    07:00 +10°C° 0 mm 2 m/s 766 mmHg 86%
    08:00 +13°C° 0 mm 2 m/s 766 mmHg 83%
    09:00 +15°C° 0 mm 2 m/s 766 mmHg 81%
    10:00 +17°C° 0 mm 2 m/s 766 mmHg 77%
    11:00 +18°C° 0 mm 3 m/s 766 mmHg 74%
    12:00 +20°C° 0 mm 3 m/s 766 mmHg 71%
    13:00 +20°C° 0.1 mm 3 m/s 766 mmHg 70%
    14:00 +21°C° 0.1 mm 4 m/s 765 mmHg 69%
    15:00 +21°C° 0.1 mm 4 m/s 765 mmHg 68%
    16:00 +20°C° 0 mm 3 m/s 765 mmHg 73%
    17:00 +19°C° 0 mm 3 m/s 765 mmHg 77%
    18:00 +17°C° 0 mm 3 m/s 765 mmHg 81%
    19:00 +16°C° 0 mm 2 m/s 765 mmHg 83%
    20:00 +14°C° 0 mm 2 m/s 765 mmHg 85%
    21:00 +12°C° 0 mm 1 m/s 765 mmHg 87%
    22:00 +12°C° 0 mm 1 m/s 765 mmHg 88%
    23:00 +12°C° 0 mm 1 m/s 765 mmHg 88%

    Mâine, 11 Aprilie, Sâmbătă

    Timp Temperatura Precipitaţii Vânt Presiune Umiditate
    00:00 +11°C° 0 mm 1 m/s 765 mmHg 88%
    01:00 +11°C° 0 mm 1 m/s 765 mmHg 89%
    02:00 +11°C° 0 mm 1 m/s 765 mmHg 89%
    03:00 +11°C° 0 mm 1 m/s 764 mmHg 90%
    04:00 +11°C° 0 mm 1 m/s 765 mmHg 90%
    05:00 +11°C° 0 mm 1 m/s 765 mmHg 90%
    06:00 +10°C° 0 mm 0 m/s 765 mmHg 90%
    07:00 +12°C° 0 mm 0 m/s 765 mmHg 85%
    08:00 +14°C° 0 mm 0 m/s 765 mmHg 81%
    09:00 +16°C° 0 mm 0 m/s 765 mmHg 76%
    10:00 +19°C° 0.3 mm 1 m/s 765 mmHg 72%
    11:00 +21°C° 0.3 mm 1 m/s 765 mmHg 68%
    12:00 +21°C° 0.3 mm 2 m/s 765 mmHg 64%
    13:00 +21°C° 0.2 mm 2 m/s 765 mmHg 64%
    14:00 +21°C° 0.2 mm 2 m/s 764 mmHg 63%
    15:00 +21°C° 0.2 mm 2 m/s 764 mmHg 62%
    16:00 +20°C° 0.2 mm 2 m/s 764 mmHg 68%
    17:00 +19°C° 0.2 mm 2 m/s 764 mmHg 73%
    18:00 +18°C° 0.2 mm 2 m/s 764 mmHg 79%
    19:00 +16°C° 0 mm 2 m/s 764 mmHg 81%
    20:00 +15°C° 0 mm 1 m/s 764 mmHg 83%
    21:00 +13°C° 0 mm 1 m/s 764 mmHg 86%
    22:00 +13°C° 0 mm 1 m/s 764 mmHg 87%
    23:00 +12°C° 0 mm 1 m/s 764 mmHg 89%

    Poimâine, 12 Aprilie, Duminică

    Timp Temperatura Precipitaţii Vânt Presiune Umiditate
    00:00 +11°C° 0 mm 1 m/s 764 mmHg 90%
    01:00 +11°C° 0 mm 1 m/s 763 mmHg 91%
    02:00 +10°C° 0 mm 1 m/s 763 mmHg 91%
    03:00 +9°C° 0 mm 0 m/s 762 mmHg 91%
    04:00 +9°C° 0 mm 0 m/s 762 mmHg 92%
    05:00 +9°C° 0 mm 0 m/s 761 mmHg 92%
    06:00 +9°C° 0 mm 0 m/s 761 mmHg 92%
    07:00 +12°C° 0 mm 1 m/s 760 mmHg 88%
    08:00 +14°C° 0 mm 1 m/s 760 mmHg 84%
    09:00 +16°C° 0 mm 1 m/s 759 mmHg 80%
    10:00 +17°C° 0.5 mm 2 m/s 759 mmHg 77%
    11:00 +18°C° 0.5 mm 2 m/s 758 mmHg 73%
    12:00 +19°C° 0.5 mm 3 m/s 758 mmHg 69%
    13:00 +19°C° 0.5 mm 3 m/s 757 mmHg 69%
    14:00 +19°C° 0.5 mm 3 m/s 756 mmHg 68%
    15:00 +19°C° 0.5 mm 4 m/s 755 mmHg 68%
    16:00 +18°C° 0.3 mm 4 m/s 755 mmHg 73%
    17:00 +17°C° 0.3 mm 3 m/s 754 mmHg 77%
    18:00 +16°C° 0.3 mm 3 m/s 754 mmHg 82%
    19:00 +14°C° 0.2 mm 3 m/s 754 mmHg 84%
    20:00 +13°C° 0.2 mm 3 m/s 754 mmHg 85%
    21:00 +12°C° 0.2 mm 3 m/s 754 mmHg 87%
    22:00 +12°C° 0.1 mm 2 m/s 754 mmHg 88%
    23:00 +12°C° 0.1 mm 2 m/s 754 mmHg 89%

    13 Aprilie, Luni

    Timp Temperatura Precipitaţii Vânt Presiune Umiditate
    00:00 +12°C° 0.1 mm 2 m/s 755 mmHg 90%
    01:00 +10°C° 0 mm 3 m/s 755 mmHg 91%
    02:00 +10°C° 0 mm 4 m/s 755 mmHg 93%
    03:00 +9°C° 0 mm 5 m/s 755 mmHg 94%
    04:00 +9°C° 0.3 mm 6 m/s 756 mmHg 93%
    05:00 +9°C° 0.3 mm 7 m/s 757 mmHg 93%
    06:00 +9°C° 0.3 mm 8 m/s 757 mmHg 93%
    07:00 +8°C° 0.6 mm 9 m/s 758 mmHg 92%
    08:00 +8°C° 0.6 mm 9 m/s 759 mmHg 91%
    09:00 +7°C° 0.6 mm 9 m/s 760 mmHg 90%
    10:00 +8°C° 0 mm 9 m/s 761 mmHg 86%
    11:00 +9°C° 0 mm 10 m/s 761 mmHg 82%
    12:00 +9°C° 0 mm 10 m/s 762 mmHg 78%
    13:00 +9°C° 0 mm 10 m/s 762 mmHg 76%
    14:00 +10°C° 0 mm 9 m/s 763 mmHg 73%
    15:00 +10°C° 0 mm 9 m/s 763 mmHg 70%
    16:00 +8°C° 0 mm 9 m/s 763 mmHg 69%
    17:00 +7°C° 0 mm 9 m/s 764 mmHg 69%
    18:00 +6°C° 0 mm 8 m/s 764 mmHg 68%
    19:00 +5°C° 0 mm 8 m/s 764 mmHg 70%
    20:00 +2°C° 0 mm 8 m/s 765 mmHg 72%
    21:00 +2°C° 0 mm 7 m/s 766 mmHg 74%
    22:00 0°C° 0 mm 7 m/s 766 mmHg 77%
    23:00 +1°C° 0 mm 6 m/s 766 mmHg 81%

    14 Aprilie, Marţi

    Timp Temperatura Precipitaţii Vânt Presiune Umiditate
    00:00 -1°C° 0 mm 6 m/s 766 mmHg 84%
    01:00 -1°C° 0 mm 6 m/s 766 mmHg 85%
    02:00 -1°C° 0 mm 6 m/s 766 mmHg 86%
    03:00 -2°C° 0 mm 6 m/s 765 mmHg 87%
    04:00 -2°C° 0 mm 6 m/s 765 mmHg 88%
    05:00 -2°C° 0 mm 6 m/s 765 mmHg 89%
    06:00 -2°C° 0 mm 6 m/s 765 mmHg 90%
    07:00 +1°C° 0 mm 6 m/s 765 mmHg 83%
    08:00 +3°C° 0 mm 7 m/s 765 mmHg 77%
    09:00 +4°C° 0 mm 7 m/s 765 mmHg 70%
    10:00 +6°C° 0 mm 7 m/s 764 mmHg 68%
    11:00 +8°C° 0 mm 7 m/s 764 mmHg 66%
    12:00 +9°C° 0 mm 7 m/s 764 mmHg 64%
    13:00 +10°C° 0 mm 7 m/s 763 mmHg 64%
    14:00 +10°C° 0 mm 7 m/s 763 mmHg 64%
    15:00 +11°C° 0 mm 7 m/s 762 mmHg 64%
    16:00 +10°C° 0 mm 7 m/s 762 mmHg 68%
    17:00 +9°C° 0 mm 7 m/s 761 mmHg 71%
    18:00 +8°C° 0 mm 6 m/s 761 mmHg 74%
    19:00 +7°C° 0 mm 6 m/s 761 mmHg 76%
    20:00 +4°C° 0 mm 6 m/s 761 mmHg 78%
    21:00 +3°C° 0 mm 6 m/s 761 mmHg 81%
    22:00 +2°C° 0 mm 6 m/s 761 mmHg 84%
    23:00 +1°C° 0 mm 6 m/s 761 mmHg 87%

    15 Aprilie, Miercuri

    Timp Temperatura Precipitaţii Vânt Presiune Umiditate
    00:00 0°C° 0 mm 5 m/s 761 mmHg 90%
    01:00 0°C° 0 mm 5 m/s 761 mmHg 91%
    02:00 -1°C° 0 mm 6 m/s 760 mmHg 91%
    03:00 -1°C° 0 mm 6 m/s 760 mmHg 92%
    04:00 -1°C° 0 mm 6 m/s 760 mmHg 88%
    05:00 +1°C° 0 mm 6 m/s 760 mmHg 85%
    06:00 0°C° 0 mm 7 m/s 759 mmHg 82%
    07:00 +2°C° 0 mm 7 m/s 759 mmHg 77%
    08:00 +4°C° 0 mm 8 m/s 759 mmHg 72%
    09:00 +6°C° 0 mm 8 m/s 759 mmHg 67%
    10:00 +7°C° 0 mm 8 m/s 759 mmHg 65%
    11:00 +8°C° 0 mm 9 m/s 758 mmHg 62%
    12:00 +11°C° 0 mm 9 m/s 758 mmHg 59%
    13:00 +11°C° 0 mm 9 m/s 757 mmHg 59%
    14:00 +11°C° 0 mm 9 m/s 757 mmHg 58%
    15:00 +11°C° 0 mm 9 m/s 757 mmHg 57%
    16:00 +10°C° 0 mm 8 m/s 757 mmHg 60%
    17:00 +9°C° 0 mm 7 m/s 756 mmHg 64%
    18:00 +8°C° 0 mm 6 m/s 756 mmHg 68%
    19:00 +6°C° 0 mm 7 m/s 757 mmHg 67%
    20:00 +5°C° 0 mm 7 m/s 757 mmHg 66%
    21:00 +4°C° 0 mm 7 m/s 757 mmHg 64%
    22:00 +4°C° 0 mm 7 m/s 757 mmHg 67%
    23:00 +4°C° 0 mm 7 m/s 757 mmHg 69%
    Arată mai mult